Flag for U.S.A. Weather past 2 weeks in Eau Claire, Wisconsin, U.S.A.

Now
28 °F

Overcast.


Feels Like: 17 °F
Forecast: 0 / 8 °F
Wind: 13 mph from Northwest

Location: Eau Claire County Airport

Current Time: Mar 3, 2015 at 6:15:54 PM

Latest Report: Mar 3, 2015 at 4:56 PM


Visibility: 10 mi

Pressure: 29.71 "Hg

Humidity: 66%

Dew point: 18 °F

Location of Eau ClaireLocation

Historic Weather in Eau Claire — Graph

°F

Eau Claire temperature yesterday

Maximum temperature yesterday: 26 °F (at 2:56 PM)
Minimum temperature yesterday: 1 °F (at 6:56 AM)
Average temperature yesterday: 18 °F

Past Weeks' High & Low Weather Summary

 TemperatureHumidityPressure
High30 °F (Feb 24, 9:56 AM)89% (Mar 3, 9:56 AM)30.81 "Hg (Mar 3, 9:56 AM)
Low-17 °F (Feb 23, 6:56 AM)32% (Feb 24, 2:56 PM)29.64 "Hg (Mar 3, 11:04 AM)
Average8 °F61%30.25 "Hg
* Reported Feb 16 4:56 PM — Mar 3 4:56 PM, Eau Claire, Weather by CustomWeather, © 2015

Note: Actual official high and low records may vary slightly from our data, if they occured in-between our weather recording intervals... More about our weather records

Advertising

Eau Claire weather history for previous 24 hours

 ConditionsComfort  
Time TempWeatherWind HumidityBarometerVisibility
4:56 PM
Tue, Mar 3
28 °FOvercast.13 mph66%29.71 "Hg10 mi
3:56 PM29 °FOvercast.16 mph66%29.69 "Hg10 mi
2:56 PM29 °FMostly cloudy.13 mph66%29.66 "Hg10 mi
1:56 PM29 °FOvercast.15 mph69%29.65 "Hg8 mi
12:56 PM28 °FOvercast.10 mph72%29.65 "Hg9 mi
11:56 AM26 °FLight snow. Mostly cloudy.10 mph74%29.68 "Hg4 mi
11:04 AM24 °FLight snow. Ice fog.No wind84%29.64 "Hg2 mi
10:56 AM23 °FLight snow. Ice fog.No wind88%29.67 "Hg1 mi
9:56 AM22 °FLight snow. Ice fog.No wind89%29.71 "Hg1 mi
8:56 AM22 °FLight snow. Ice fog.3 mph85%29.74 "Hg1 mi
7:56 AM21 °FLight snow. Mostly cloudy.5 mph81%29.73 "Hg1 mi
6:56 AM22 °FMostly cloudy.5 mph72%29.78 "Hg10 mi
5:56 AM22 °FOvercast.6 mph72%29.83 "Hg10 mi
4:56 AM22 °FOvercast.6 mph68%29.88 "Hg10 mi
3:56 AM22 °FOvercast.8 mph68%29.92 "Hg10 mi
2:56 AM22 °FOvercast.6 mph72%29.98 "Hg10 mi
1:56 AM21 °FOvercast.6 mph74%30.04 "Hg10 mi
12:56 AM20 °FMostly cloudy.3 mph85%30.10 "Hg10 mi
11:56 PM
Mon, Mar 2
23 °FMostly cloudy.9 mph60%30.13 "Hg10 mi
10:56 PM23 °FOvercast.9 mph55%30.16 "Hg10 mi
9:56 PM23 °FOvercast.8 mph50%30.19 "Hg10 mi
8:56 PM24 °FOvercast.9 mph46%30.22 "Hg10 mi
7:56 PM24 °FOvercast.8 mph50%30.25 "Hg10 mi
6:56 PM24 °FOvercast.9 mph48%30.29 "Hg10 mi
Weather by CustomWeather, © 2015

See weather overviewHow to use our weather pages